DW7104 Weather Reports


time (UTC)temp
F
wind
direction
speed
knots
gust
knots
rain 1hr
in
rain 24hr
in
rain mn
in
humidity
%
barometer
mb
20260504151025 64 232 2.6 7.8 0.00 0.26 0.04 38 1012.1
20260504150538 64 275 1.7 8.7 0.00 0.26 0.04 40 1012.0
20260504141103 61 103 0.0 6.1 0.00 0.53 0.04 44 1012.3
20260504141004 61 66 1.7 6.1 0.00 0.53 0.04 44 1012.2
20260504140513 60 39 0.0 4.3 0.00 0.53 0.04 45 1012.3
20260504130507 56 63 0.0 5.2 0.04 0.53 0.04 53 1013.1
20260504110527 38 25 0.0 0.0 0.00 0.49 0.00 93 1013.1
20260504100514 35 25 0.0 0.0 0.00 0.49 0.00 92 1012.9
20260504081542 36 25 0.0 0.0 0.00 0.49 0.00 89 1012.5
20260504081049 36 25 0.0 0.0 0.00 0.49 0.00 89 1012.6
20260504080558 36 25 0.0 0.0 0.00 0.49 0.00 89 1012.6
20260504050521 39 10 0.0 0.0 0.00 0.49 0.00 83 1012.0
20260504045547 39 10 0.0 0.0 0.00 0.49 0.00 83 1012.2
20260504045057 39 10 0.0 0.0 0.00 0.49 0.00 83 1012.2
20260504045003 39 10 0.0 0.0 0.00 0.49 0.00 83 1012.2
20260504044519 39 10 0.0 0.0 0.00 0.49 0.00 83 1012.2
20260504044031 40 10 0.0 0.0 0.00 0.49 0.00 83 1012.2
20260504043539 40 10 0.0 0.0 0.00 0.49 0.00 83 1012.1
20260504043100 40 10 0.0 0.0 0.00 0.49 0.00 82 1012.1
20260504042510 40 10 0.0 0.0 0.00 0.49 0.00 82 1012.1
20260504042025 40 10 0.0 0.0 0.00 0.49 0.00 81 1012.1
20260504041537 41 10 0.0 0.0 0.00 0.49 0.00 80 1012.1
20260504041057 41 10 0.0 0.0 0.00 0.49 0.00 80 1012.1
20260504040508 41 10 0.0 0.0 0.00 0.49 0.00 80 1012.1
20260504040026 41 10 0.0 0.0 0.00 0.49 0.00 80 1012.1
20260504035532 41 10 0.0 0.0 0.00 0.49 0.49 80 1012.1
20260504035045 41 10 0.0 0.0 0.00 0.49 0.49 80 1012.0
20260504034504 41 10 0.0 0.0 0.00 0.49 0.49 80 1012.0
20260504034014 41 10 0.0 0.0 0.00 0.49 0.49 79 1012.0
20260504033529 41 10 0.0 0.0 0.00 0.49 0.49 79 1012.0
20260504033040 41 10 0.0 0.0 0.00 0.49 0.49 78 1011.9
20260504032556 42 10 0.0 0.0 0.00 0.49 0.49 78 1011.8
20260504032013 42 10 0.0 0.0 0.00 0.49 0.49 78 1011.8
20260504031531 42 8 0.0 0.0 0.00 0.49 0.49 78 1011.8
20260504031035 42 8 0.0 0.0 0.00 0.49 0.49 77 1011.9
20260504030551 42 8 0.0 0.0 0.00 0.49 0.49 77 1011.8
20260504030011 43 8 0.0 0.0 0.00 0.49 0.49 75 1011.8
20260504025518 43 8 0.0 0.0 0.00 0.49 0.49 74 1011.7
20260504025034 43 8 0.0 0.0 0.00 0.49 0.49 75 1011.7
20260504024552 43 8 0.0 0.0 0.00 0.49 0.49 74 1011.7
20260504024059 43 8 0.0 0.0 0.00 0.49 0.49 74 1011.8
20260504023515 44 34 0.0 0.0 0.00 0.49 0.49 74 1011.8
20260504023029 44 34 0.0 0.0 0.00 0.49 0.49 73 1011.8
20260504022544 44 34 0.0 0.0 0.00 0.49 0.49 72 1011.8
20260504022057 45 34 0.0 0.0 0.00 0.49 0.49 70 1011.8
20260504022003 45 33 0.0 0.0 0.00 0.49 0.49 70 1011.8
20260504021516 45 34 0.0 0.0 0.00 0.49 0.49 69 1011.8
20260504021032 46 34 0.0 0.0 0.00 0.49 0.49 67 1011.8
20260504020548 47 33 0.0 0.0 0.00 0.49 0.49 64 1011.8
20260504020142 47 33 0.0 0.0 0.00 0.49 0.49 61 1011.8
20260504020004 47 33 0.0 0.0 0.00 0.49 0.49 58 1011.8
20260504015514 47 33 0.0 0.0 0.00 0.49 0.49 59 1011.8
20260504015030 47 33 0.0 0.0 0.00 0.49 0.49 65 1011.7
20260504014557 47 34 0.0 0.0 0.00 0.49 0.49 66 1011.7
20260504014057 47 33 0.0 0.0 0.00 0.49 0.49 63 1011.6
20260504013510 48 34 0.0 0.0 0.00 0.49 0.49 63 1011.6
20260504013034 48 33 0.0 0.0 0.00 0.49 0.49 57 1011.5
20260504012538 48 33 0.0 0.0 0.00 0.49 0.49 54 1011.5
20260504012055 48 34 0.0 0.0 0.00 0.49 0.49 53 1011.4
20260504011506 48 33 0.0 0.0 0.00 0.49 0.49 57 1011.3
20260504011019 49 34 0.0 0.0 0.00 0.49 0.49 60 1011.2
20260504010535 49 34 0.0 0.0 0.00 0.49 0.49 61 1011.2
20260504010050 49 34 0.0 0.0 0.00 0.49 0.49 61 1011.1
20260504005559 50 33 0.0 0.0 0.00 0.49 0.49 59 1011.0
20260504005502 50 33 0.0 0.0 0.00 0.49 0.49 59 1011.0
20260504005021 50 34 0.0 0.0 0.00 0.49 0.49 59 1010.9
20260504004534 50 34 0.0 0.0 0.00 0.49 0.49 58 1010.8
20260504004046 51 33 0.0 0.0 0.00 0.49 0.49 57 1010.8
20260504003557 51 34 0.0 0.0 0.00 0.49 0.49 55 1010.7
20260504003504 51 33 0.0 0.0 0.00 0.49 0.49 55 1010.7
20260504003017 51 33 0.0 0.0 0.00 0.49 0.49 50 1010.6
20260504002532 51 34 0.0 0.0 0.00 0.49 0.49 50 1010.6
20260504002044 52 34 0.0 0.0 0.00 0.49 0.49 52 1010.6
20260504001622 53 34 0.0 0.0 0.00 0.49 0.49 43 1010.5
20260504001014 53 34 0.0 0.0 0.00 0.49 0.49 45 1010.4
20260504000531 53 34 0.0 0.0 0.00 0.49 0.49 41 1010.4
20260504000045 53 34 0.0 0.0 0.00 0.49 0.49 40 1010.3
20260503235601 53 34 0.0 0.0 0.00 0.49 0.49 40 1010.2
20260503235013 53 34 0.0 0.0 0.00 0.49 0.49 40 1010.1
20260503234532 54 34 0.0 0.0 0.00 0.49 0.49 39 1010.0
20260503234045 54 34 0.0 0.0 0.00 0.49 0.49 39 1009.9
20260503233558 54 17 0.0 0.0 0.00 0.49 0.49 39 1009.9
20260503233019 55 17 0.0 0.0 0.00 0.49 0.49 38 1009.9
20260503232530 55 356 0.0 0.9 0.03 0.49 0.49 36 1009.8
20260503232042 55 356 0.0 0.9 0.05 0.49 0.49 36 1009.8
20260503231556 56 356 0.0 3.5 0.05 0.49 0.49 35 1009.7
20260503231012 56 1 0.9 3.5 0.05 0.49 0.49 35 1009.7
20260503230525 56 6 0.0 2.6 0.05 0.49 0.49 35 1009.7
20260503230045 57 346 0.0 5.2 0.05 0.49 0.49 35 1009.7
20260503225553 57 89 0.9 6.1 0.06 0.49 0.49 34 1009.7
20260503225011 57 266 0.0 6.1 0.09 0.49 0.49 35 1009.6
20260503224524 57 333 0.0 4.3 0.10 0.49 0.49 36 1009.6
20260503224038 57 352 0.9 4.3 0.10 0.49 0.49 34 1009.6
20260503223550 57 141 1.7 4.3 0.10 0.49 0.49 35 1009.6
20260503223007 58 338 0.9 4.3 0.10 0.49 0.49 35 1009.6
20260503222519 58 249 0.9 7.0 0.05 0.44 0.46 34 1009.5
20260503222035 58 274 0.9 7.8 0.05 0.44 0.44 35 1009.4
20260503221546 58 309 2.6 7.8 0.05 0.44 0.44 34 1009.5
20260503221007 58 189 0.0 3.5 0.05 0.44 0.44 36 1009.4
20260503220518 57 308 0.0 5.2 0.05 0.44 0.44 36 1009.4
20260503220041 57 259 2.6 6.1 0.05 0.44 0.44 36 1009.4
20260503215542 57 264 0.9 5.2 0.04 0.43 0.43 36 1009.4
20260503215057 57 318 0.0 4.3 0.01 0.40 0.40 36 1009.4
20260503214517 56 340 0.0 4.3 0.00 0.39 0.39 38 1009.5
20260503214032 56 4 0.9 5.2 0.00 0.39 0.39 38 1009.6
20260503213539 57 312 0.0 9.6 0.00 0.39 0.39 38 1009.5
20260503213056 57 302 2.6 7.0 0.00 0.39 0.39 38 1009.4
20260503212508 56 323 0.0 5.2 0.00 0.39 0.39 38 1009.4
20260503212026 56 235 1.7 10.4 0.00 0.39 0.39 38 1009.6
20260503211539 56 296 5.2 10.4 0.00 0.39 0.39 37 1009.6
20260503211059 56 287 4.3 9.6 0.00 0.39 0.39 38 1009.8
20260503210512 56 223 0.0 7.8 0.00 0.39 0.39 39 1009.7
20260503210022 56 273 1.7 7.8 0.00 0.39 0.39 37 1009.7
20260503205538 56 287 0.9 7.8 0.00 0.39 0.39 39 1009.5
20260503205050 55 276 0.9 7.8 0.00 0.39 0.39 39 1009.6
20260503204505 56 280 2.6 10.4 0.00 0.39 0.39 38 1009.7
20260503204018 55 299 1.7 10.4 0.00 0.39 0.39 38 1009.7
20260503203533 55 285 1.7 7.8 0.00 0.39 0.39 39 1009.6
20260503203103 55 231 1.7 7.8 0.00 0.39 0.39 38 1009.6
20260503202504 54 202 2.6 10.4 0.00 0.39 0.39 40 1009.5
20260503202016 54 223 4.3 10.4 0.00 0.39 0.39 39 1009.5
20260503201534 55 302 2.6 10.4 0.00 0.39 0.39 39 1009.5
20260503201044 54 349 1.7 11.3 0.00 0.39 0.39 40 1009.4
20260503200558 54 254 5.2 11.3 0.00 0.39 0.39 40 1009.7
20260503200013 54 15 3.5 9.6 0.00 0.39 0.39 40 1009.7
20260503195525 54 1 5.2 9.6 0.00 0.39 0.39 40 1009.8
20260503195036 54 160 2.6 9.6 0.00 0.39 0.39 41 1009.7
20260503194552 54 280 0.9 11.3 0.00 0.39 0.39 42 1009.5
20260503194008 53 243 4.3 11.3 0.00 0.39 0.39 41 1009.8
20260503193524 53 286 0.9 9.6 0.00 0.39 0.39 42 1009.8
20260503193039 53 3 1.7 11.3 0.00 0.39 0.39 43 1009.9
20260503192551 52 205 4.3 11.3 0.00 0.39 0.39 41 1009.8
20260503192008 53 319 3.5 10.4 0.02 0.39 0.39 42 1009.9
20260503191519 53 246 3.5 11.3 0.05 0.39 0.39 42 1009.8
20260503191034 52 298 4.3 11.3 0.08 0.39 0.39 42 1009.8
20260503190545 53 31 3.5 9.6 0.11 0.39 0.39 42 1009.9
20260503190005 53 129 2.6 9.6 0.11 0.39 0.39 41 1009.7
20260503185518 53 217 2.6 10.4 0.11 0.39 0.39 41 1009.8
20260503185031 53 223 5.2 10.4 0.11 0.39 0.39 41 1009.8
20260503184539 53 249 2.6 15.6 0.11 0.39 0.39 41 1009.8
20260503184058 53 207 5.2 17.4 0.11 0.39 0.39 41 1009.9
20260503183508 53 225 2.6 13.9 0.11 0.39 0.39 40 1009.9
20260503183024 54 297 4.3 13.9 0.11 0.39 0.39 39 1009.9
20260503182533 54 286 2.6 12.2 0.10 0.38 0.39 40 1009.7
20260503182049 54 186 3.5 12.2 0.09 0.37 0.37 39 1009.7
20260503181605 54 202 4.3 15.6 0.06 0.34 0.37 39 1009.8
20260503181502 54 214 3.5 15.6 0.03 0.31 0.32 38 1009.8
20260503181018 54 290 4.3 15.6 0.00 0.28 0.28 39 1010.0
20260503180528 54 311 4.3 10.4 0.00 0.28 0.28 40 1009.8
20260503180044 54 273 3.5 10.4 0.00 0.28 0.28 40 1009.6
20260503175552 54 1 4.3 10.4 0.00 0.28 0.28 40 1009.9
20260503175011 53 285 4.3 10.4 0.00 0.28 0.28 40 1009.8
20260503174526 53 360 3.5 7.0 0.00 0.28 0.28 42 1009.8
20260503174040 52 77 2.6 7.0 0.00 0.28 0.28 43 1009.6
20260503173548 52 256 0.9 8.7 0.00 0.28 0.28 44 1009.7
20260503173006 52 290 2.6 8.7 0.00 0.28 0.28 44 1009.6
20260503172522 52 359 0.0 4.3 0.00 0.28 0.28 46 1009.7
20260503172035 52 301 0.0 9.6 0.00 0.28 0.28 48 1009.8
20260503171552 52 301 2.6 9.6 0.00 0.28 0.28 46 1009.9
20260503171004 52 299 0.0 5.2 0.00 0.28 0.28 49 1009.9
20260503170519 51 330 0.0 5.2 0.00 0.28 0.28 48 1010.0